Dewpoint
51 50 56 63 66 65 65 65 66 67 67 67 66 66 66 66 66 66 66 65 64 63 63 63 61 62 62 64 65 65 65 65 65 66 66 66 67 66 66 67 67 68 68
50 50 61 66 66 66 66 65 66 67 67 66 66 66 66 66 66 66 66 66 66 65 65 64 63 63 63 62 64 64 64 63 64 64 65 65 66 66 66 66 66 67 66
47 55 62 64 64 64 64 64 65 66 66 66 66 66 66 65 65 64 64 64 64 65 66 65 65 65 64 64 64 63 63 62 61 61 62 64 65 66 65 66 66 66 67
47 59 60 61 61 61 61 62 62 63 64 64 63 64 64 64 64 64 64 63 63 63 64 65 65 65 66 66 65 64 64 64 63 61 60 59 64 66 66 65 65 66 67
52 56 58 59 59 59 59 58 59 60 61 61 60 60 60 60 59 59 59 59 59 60 60 60 62 64 64 65 65 65 65 65 64 61 52 54 61 62 64 66 66 65 65
45 52 56 57 57 56 56 55 56 56 56 57 57 57 57 57 57 57 57 57 57 58 58 59 59 61 62 62 63 63 64 65 64 61 54 55 60 59 61 64 65 66 66
42 48 51 53 53 53 53 53 53 52 52 52 52 52 53 53 53 53 53 53 53 54 54 55 55 56 58 59 59 60 61 62 62 61 58 60 61 61 60 62 65 66 66
40 40 43 46 48 49 48 48 47 47 46 46 45 46 46 47 47 47 48 48 48 48 49 49 50 50 51 53 53 53 56 57 58 60 62 64 65 64 62 61 62 64 65
38 38 38 39 42 41 42 42 41 40 39 38 36 36 36 36 38 40 40 41 42 41 42 42 43 42 42 43 45 44 49 53 54 54 61 63 63 64 64 63 63 62 63
35 35 35 33 33 30 29 34 33 32 30 29 28 26 25 25 27 30 32 34 35 34 35 35 35 34 32 32 35 37 44 44 41 48 61 60 59 60 62 63 64 64 63
32 32 31 30 28 27 25 27 25 25 23 22 21 22 20 19 22 23 27 29 29 29 30 31 30 28 25 23 25 31 29 26 29 41 50 57 54 56 58 59 61 62 64
29 27 27 27 26 24 21 21 21 21 20 18 16 18 17 18 22 21 25 24 24 25 24 25 25 22 19 17 19 20 16 15 19 26 32 41 43 48 50 53 56 59 60
27 26 26 25 25 23 22 21 20 20 21 20 18 17 18 18 18 19 19 21 21 21 20 20 19 17 16 16 15 14 13 13 15 17 22 32 32 36 39 44 48 53 57
26 24 24 23 23 24 22 21 20 20 21 20 19 18 18 18 17 18 18 19 19 19 18 19 19 16 16 15 15 14 13 11 12 14 18 25 24 27 31 35 38 45 50
25 24 23 23 23 23 24 22 21 20 20 20 20 19 18 18 16 18 17 18 18 18 18 18 17 16 16 16 14 13 12 12 13 14 15 21 20 22 26 29 33 39 45
25 23 23 22 22 23 22 22 21 20 20 20 19 18 18 18 17 18 17 18 17 17 18 18 17 16 16 16 15 13 13 13 13 13 12 11 16 20 23 25 29 33 37
24 23 23 22 22 22 21 20 20 19 19 18 17 16 16 17 17 17 18 17 17 18 18 18 17 18 17 16 16 15 14 14 14 13 12 14 16 19 18 22 24 27 31
22 19 18 20 21 21 21 20 19 19 17 17 17 16 15 15 16 17 17 17 16 18 18 17 16 17 17 17 17 16 15 15 15 15 14 13 13 15 19 26 38 40 43
21 21 21 21 20 20 20 21 19 18 17 17 16 16 14 14 16 16 17 17 17 18 17 17 17 17 17 17 17 16 17 18 16 15 15 15 16 17 16 31 29 28 30
20 22 21 20 19 19 20 20 20 19 18 18 16 15 14 14 16 16 17 16 17 17 17 17 17 18 18 18 17 17 17 17 17 17 16 11 11 12 13 19 20 18 20
20 20 20 20 20 20 19 18 17 16 17 17 16 15 15 15 16 16 17 17 17 17 17 17 17 18 18 19 17 17 16 17 9 15 11 12 13 10 10 16 15 14 14
18 18 19 19 19 20 20 18 17 16 16 16 16 16 15 14 16 14 17 17 17 17 17 17 17 18 17 19 17 17 13 10 14 13 11 14 10 16 14 14 13 14 16
17 17 17 17 18 18 18 18 17 17 18 15 14 15 14 13 14 16 16 16 16 17 17 17 17 17 17 18 18 16 14 11 15 15 14 12 15 14 14 14 15 15 15
17 17 17 18 18 16 15 14 12 12 11 12 12 13 12 12 13 14 15 15 15 16 16 17 16 17 18 17 18 16 17 16 14 12 14 15 16 16 17 16 15 17 16
19 19 18 19 16 16 14 14 13 11 12 12 12 10 11 12 11 13 14 14 14 15 16 16 16 16 17 17 17 17 16 17 16 15 14 13 15 15 16 17 16 16 16
21 19 19 17 16 15 14 13 12 11 10 10 10 10 11 11 12 12 13 13 14 14 15 16 16 16 16 17 17 16 16 15 15 15 15 15 15 16 17 17 18 18 19
Wind_Speed
9 25 27 21 6 11 12 17 17 15 16 17 17 18 18 17 17 18 19 18 18 18 18 18 19 18 18 18 19 19 18 17 15 13 12 12 12 11 11 12 13 11 12
19 24 29 14 17 16 14 20 20 20 20 20 19 20 20 20 21 21 21 21 20 18 17 17 17 17 17 17 16 17 17 16 15 14 9 10 13 12 11 10 9 9 9
15 17 25 29 26 24 24 24 25 24 24 25 24 24 25 24 24 24 23 23 23 24 23 20 17 16 16 16 16 16 16 16 16 16 15 6 11 13 12 10 7 6 7
14 15 20 24 24 24 24 23 24 25 26 25 25 26 26 26 25 24 24 24 23 23 23 23 23 20 18 16 15 16 17 18 19 19 9 12 10 15 13 12 8 5 4
5 17 18 22 22 23 22 21 22 23 24 24 23 23 23 22 22 22 22 22 22 22 21 21 21 22 22 21 19 18 17 18 20 15 11 9 11 13 13 12 9 6 4
8 14 16 19 20 20 19 20 21 21 22 21 22 22 22 23 23 23 23 22 22 22 22 22 21 20 20 20 19 18 17 16 16 15 8 12 11 12 11 11 11 8 5
9 12 12 17 16 18 19 19 21 21 20 20 22 22 22 22 22 23 22 21 21 21 21 21 21 20 19 18 19 19 18 18 16 12 8 13 11 13 13 13 13 13 8
8 6 10 13 14 16 19 19 20 20 20 20 20 20 21 22 22 22 22 22 21 21 21 22 21 21 19 19 21 21 20 19 15 12 14 12 15 12 11 12 14 15 13
8 7 6 9 12 16 18 19 19 19 19 21 19 18 19 19 20 22 22 22 22 22 23 23 22 22 20 19 20 22 24 22 15 16 10 9 15 14 15 12 11 13 14
9 9 6 7 10 12 12 15 18 19 19 19 19 18 19 18 18 20 21 21 23 21 23 22 23 22 23 22 22 25 24 19 20 18 8 10 15 16 16 17 17 14 13
10 8 9 10 11 7 10 12 14 17 19 19 17 18 15 13 13 14 18 20 20 21 21 22 22 23 23 21 22 24 20 16 18 16 12 15 18 17 16 17 17 17 16
9 8 8 7 8 9 10 11 12 12 14 17 18 15 14 15 15 15 16 18 19 20 21 21 20 20 18 14 14 16 15 19 16 16 15 24 22 20 20 20 20 19 18
9 8 7 8 10 10 9 11 10 11 13 13 16 16 14 12 14 13 11 12 13 17 15 16 15 14 16 15 14 14 15 14 14 14 17 23 23 22 22 22 22 22 21
10 9 8 8 10 9 9 10 10 10 11 12 13 15 12 11 11 12 12 15 15 14 15 14 13 15 16 16 17 17 16 15 14 13 14 19 24 24 24 23 23 23 22
12 10 8 8 9 8 9 9 10 11 11 11 12 11 11 12 13 14 14 14 14 14 13 14 14 14 15 15 15 16 16 16 16 13 14 19 23 24 23 24 25 24 23
14 12 9 10 9 9 10 10 9 9 9 9 12 14 15 14 14 13 12 13 14 14 14 14 15 15 15 15 16 17 17 16 17 18 17 17 23 24 24 24 23 23 24
15 14 11 9 9 9 8 9 8 8 10 10 10 13 11 11 12 12 11 12 13 13 14 14 13 14 13 13 14 14 13 15 17 20 18 15 16 19 23 25 24 24 24
17 16 12 11 10 10 8 8 8 8 9 9 9 9 10 11 12 11 10 12 14 13 13 14 14 13 13 13 14 15 14 16 19 16 16 17 17 17 17 21 17 19 18
17 16 14 12 11 10 9 8 8 7 8 8 9 8 10 11 12 12 11 11 12 11 12 13 12 13 14 14 15 15 15 15 17 17 19 16 13 15 15 17 18 19 23
18 16 14 11 10 9 9 9 9 9 7 9 7 7 10 10 11 11 10 11 11 11 11 12 14 13 14 16 20 16 19 18 14 12 10 17 17 18 18 14 16 17 23
18 17 15 13 9 8 5 7 8 5 6 6 5 6 9 9 10 10 10 11 12 11 13 14 11 16 17 15 13 19 15 11 17 11 16 14 13 16 15 13 14 15 16
20 19 17 15 11 9 8 5 4 3 3 4 6 7 8 7 8 9 9 10 12 13 13 14 14 13 10 13 12 16 10 14 9 26 23 13 18 12 16 17 18 16 13
20 19 17 15 14 10 10 7 5 6 3 4 6 4 5 5 5 6 7 9 10 11 12 13 12 12 13 12 11 7 7 5 24 9 20 20 14 18 21 20 16 13 15
20 19 17 15 14 10 8 7 7 6 4 3 2 3 6 6 5 5 5 7 9 10 11 10 11 13 12 13 11 10 14 17 10 20 3 14 18 17 14 17 20 14 17
19 19 17 15 12 11 8 8 6 6 4 3 4 7 7 7 8 7 7 8 9 10 10 12 12 13 12 13 12 11 12 14 16 18 34 18 19 16 15 15 19 20 20
19 19 17 16 13 10 10 8 7 5 4 4 6 7 7 8 8 8 8 8 9 10 11 11 12 13 13 13 14 14 14 14 16 17 25 28 28 23 17 16 16 17 18
Wind_Direction
306 317 318 314 76 38 31 61 66 74 72 69 69 71 73 69 67 63 60 61 63 58 53 53 53 50 44 44 41 40 36 30 23 30 51 62 62 58 51 40 54 59 63
293 306 313 117 94 81 64 58 63 60 66 67 67 68 66 64 60 56 52 49 47 49 52 52 49 47 46 43 40 37 30 19 7 4 5 72 63 55 49 51 62 65 61
312 319 13 49 56 58 56 51 52 55 58 60 60 61 60 58 54 51 46 43 40 40 41 39 41 42 40 36 35 33 23 9 354 348 344 94 72 55 39 34 50 72 74
310 10 33 46 53 54 56 54 52 51 54 55 54 55 54 51 52 51 49 47 46 43 41 34 36 35 33 30 34 31 19 4 349 341 43 36 59 46 34 19 29 52 67
22 32 35 47 51 55 58 59 59 57 56 58 59 58 56 53 50 48 45 41 41 39 38 35 32 30 33 32 30 26 17 1 345 344 38 42 48 41 26 21 15 17 352
65 57 42 52 55 59 60 60 62 62 62 60 60 60 58 56 52 49 47 44 41 40 37 36 33 31 28 25 21 14 7 356 343 340 33 38 50 32 16 9 2 348 328
67 88 56 58 60 66 66 65 64 63 62 60 59 57 55 52 51 47 44 42 40 36 35 33 30 27 26 24 18 9 1 350 342 347 19 73 48 30 7 357 354 351 314
86 65 115 86 73 68 66 63 61 60 58 58 57 56 51 49 45 43 38 36 33 33 30 29 25 21 19 17 13 4 353 346 340 337 52 46 31 22 8 352 343 340 340
96 86 47 113 102 72 63 61 61 60 57 53 53 53 52 46 45 41 33 33 28 29 26 25 22 18 13 13 12 0 347 342 2 350 28 42 21 12 4 348 338 332 331
54 47 59 56 79 83 72 65 58 55 52 50 47 46 50 41 39 38 34 26 27 26 24 21 19 18 12 10 9 359 351 9 355 338 37 28 14 4 356 347 349 334 323
73 60 42 34 46 56 84 56 58 53 49 43 37 35 45 40 32 45 32 26 27 25 20 20 19 15 12 7 5 359 3 357 348 343 349 17 356 347 342 338 336 332 329
103 78 60 52 62 43 61 59 56 50 55 42 26 27 25 35 27 33 29 27 23 21 18 18 16 12 7 357 360 358 354 349 348 340 338 343 347 339 332 328 325 322 321
117 98 89 69 50 70 62 64 53 61 55 52 35 24 32 31 24 25 26 24 24 15 14 8 3 2 1 357 352 355 348 346 340 336 332 331 333 329 324 322 319 317 314
124 112 93 83 79 59 72 73 76 66 68 56 43 31 27 26 24 15 23 24 26 9 9 1 360 355 356 354 347 347 341 341 333 327 321 331 325 322 320 317 313 309 306
135 119 103 98 90 85 76 78 72 65 63 68 53 41 33 29 18 15 20 22 22 3 2 356 358 355 352 344 348 339 339 333 330 330 325 319 316 313 312 313 311 306 304
141 133 125 103 100 99 93 82 75 76 67 64 63 40 40 29 15 14 13 18 16 357 356 357 357 356 348 347 342 340 333 334 331 323 312 311 310 309 310 309 308 311 309
145 137 133 126 120 111 102 100 88 77 69 60 55 50 42 36 20 8 13 18 7 356 356 1 356 352 347 340 334 331 324 327 315 306 304 306 310 313 313 310 309 308 309
146 151 153 138 128 115 103 95 86 74 79 69 57 52 32 37 26 8 14 13 3 358 353 359 355 347 343 338 332 322 323 314 299 304 310 303 296 295 299 303 351 358 341
155 148 146 143 141 135 127 117 110 98 94 77 68 43 33 32 25 10 10 7 2 357 359 353 348 352 341 337 327 324 311 299 304 300 293 298 340 349 343 343 356 355 348
154 151 147 145 145 145 146 157 148 122 105 93 68 52 45 27 26 9 14 3 3 3 356 351 353 354 350 339 334 326 319 307 297 297 0 348 331 330 324 344 4 357 344
155 154 154 148 157 154 146 151 116 102 100 89 81 62 54 29 26 9 13 2 2 2 355 359 355 351 346 351 333 332 306 314 313 5 351 331 344 334 319 1 355 341 329
164 167 158 151 141 124 113 100 106 127 120 149 80 64 46 25 27 10 3 359 354 355 354 355 350 342 334 350 329 315 332 321 3 335 322 326 328 344 333 333 326 315 309
174 164 160 149 135 130 138 145 174 166 202 80 40 38 15 16 13 8 359 350 350 348 340 335 334 335 326 322 325 323 327 295 320 281 316 300 320 324 314 310 305 320 322
173 162 151 142 136 135 137 120 107 104 97 72 41 17 6 355 11 348 346 343 343 335 330 323 325 320 317 312 312 293 285 295 309 313 203 321 289 288 308 314 310 316 318
163 154 146 144 138 130 113 106 101 94 81 47 21 15 353 4 349 352 353 357 342 328 315 316 317 309 302 297 292 296 292 290 283 284 299 305 299 291 295 304 305 306 300
147 146 147 146 141 138 128 115 104 98 68 35 14 1 347 344 342 346 350 343 320 313 310 308 301 296 292 289 288 288 288 289 289 289 290 299 300 299 294 294 299 298 299